Location: Unspecified
(49.2170°N, 0.0000°E)
Time: 23:53:15
(UTC+00:00)

A-11 Canister half - Pass Details

Date: 24 June 2019
Orbit: 1527 x 1682 km, 47.3° (Epoch: 13 October)

Event Time Altitude Azimuth Distance (km) Brightness Sun altitude
Rises 02:03:50 0° 186° (S) 4,774 - -12.5°
Exits shadow 02:06:51 - 176° (S) 4,031 10.7 -12.2°
Reaches altitude 10° 02:08:04 10° 171° (S) 3,766 10.6 -12.2°
Maximum altitude 02:14:14 20° 129° (SE) 3,045 10.5 -11.6°
Drops below altitude 10° 02:20:18 10° 88° (E) 3,715 11.5 -11.1°
Sets 02:24:24 0° 73° (ENE) 4,689 12.4 -10.8°
